{"data":{"norad_id":61014,"intl_designator":"2024-159D","name":"GEESAT-3 04","alt_names":[],"object_type":"PAYLOAD","status":"ACTIVE","operator":null,"country":"PRC","launch_date":"2024-09-05","launch_site_code":"TAISC","launch_vehicle":null,"mission":null,"orbit_class":"UNKNOWN","rcs_meters":null,"size_class":null,"mass_kg":null,"dimensions":null,"purposes":[],"wikipedia_slug":null,"has_3d_model":false,"image_url":null,"decayed_at":null,"tle_current":{"epoch":"2026-09-22T17:24:34.118496Z","epoch_age_seconds":99390,"freshness":"FRESH","line1":"1 61014U 24159D   26265.72539489  .00001347  00000+0  18967-3 0  9999","line2":"2 61014  49.9981 262.2903 0001927  75.1046 285.0105 14.83398142112480","mean_motion":14.83398142,"eccentricity":0.0001927,"inclination_deg":49.9981,"raan_deg":262.2903,"arg_perigee_deg":75.1046,"mean_anomaly_deg":285.0105,"bstar":0.00018967,"rev_number":11248,"period_min":97.074410384424,"perigee_km":617.2700586535,"apogee_km":619.96660815899,"semimajor_km":6996.7553334062,"source":"CELESTRAK","updated_at":"2026-09-23T09:00:20.799422Z"}}}